View from above orbital plane
|
View from above satellite
|
Ground track
|
The orbit data is extracted from the following two-line orbital elements,
1 13771U 83003B 13143.16093869 .00003131 00000-0 22120-3 0 7612
2 13771 081.1591 270.5919 0031607 230.5419 129.3007 15.04247647649887
| Epoch (UTC): | 23 May 2013 03:51:45 |
| Eccentricity: | 0.0031607 |
| inclination: | 81.1591° |
| perigee height: | 532 km |
| apogee height: | 576 km |
| right ascension of ascending node: | 270.5919° |
| argument of perigee: | 230.5419° |
| revolutions per day: | 15.04247647 |
| mean anomaly at epoch: | 129.3007° |
| orbit number at epoch: | 64988 |
The dashed part of the orbit path shows where the satellite is in the earth's shadow,
|
|